period_start,C,m1,H,J0,J1,J2,J3,J4,J5,JA,JB,JC,JD,JJ,JK,JN,#
2017-02-06 00:04:06,0.18,7.05,0.00,19.98,23.09,26.89,14.99,51.02,1041.52,2040.87,1624.78,1782.91,1986.76,600.01,617.01,44.49,0000 0000 0000 0000 000000
2017-02-06 00:09:08,0.15,7.05,0.00,19.91,23.09,26.90,15.13,50.98,1041.52,2040.86,1623.53,1781.96,1985.68,599.74,616.69,44.54,0000 0000 0000 0000 000000
2017-02-06 00:14:09,0.17,7.06,0.00,19.93,23.09,26.89,15.07,51.03,1041.52,2040.88,1622.19,1781.01,1984.60,600.09,617.12,44.59,0000 0000 0000 0000 000000
2017-02-06 00:19:10,0.13,7.07,0.00,19.97,23.09,26.90,15.05,51.04,1041.51,2040.69,1620.77,1780.05,1983.55,599.88,616.91,44.64,0000 0000 0000 0000 000000
2017-02-06 00:24:12,0.19,7.08,0.00,19.99,23.09,26.90,15.05,50.96,1041.49,2040.67,1619.51,1779.08,1982.52,600.26,617.16,44.69,0000 0000 0000 0000 000000
2017-02-06 00:29:13,0.15,7.09,0.00,19.99,23.09,26.90,15.13,50.95,1041.49,2040.68,1618.23,1778.12,1981.48,600.16,617.22,44.74,0000 0000 0000 0000 000000
2017-02-06 00:34:14,0.11,7.09,0.00,19.93,23.09,26.90,15.05,51.01,1041.44,2040.60,1617.14,1777.32,1980.52,599.59,616.54,44.79,0000 0000 0000 0000 000000
2017-02-06 00:39:15,0.14,7.10,0.00,19.93,23.07,26.88,15.04,50.98,1041.35,2040.67,1616.04,1776.56,1979.60,600.12,616.87,44.84,0000 0000 0000 0000 000000
2017-02-06 00:44:17,0.13,7.11,0.00,19.97,23.07,26.89,15.09,51.00,1041.37,2040.75,1614.97,1775.95,1978.71,599.81,616.65,44.89,0000 0000 0000 0000 000000
2017-02-06 00:49:18,0.10,7.12,0.00,19.99,23.07,26.88,15.08,50.95,1041.39,2040.65,1613.92,1775.12,1977.85,599.68,616.64,44.94,0000 0000 0000 0000 000000
2017-02-06 00:54:19,0.14,7.12,0.00,19.97,23.07,26.89,15.03,51.05,1041.44,2040.59,1612.86,1774.34,1976.99,599.93,616.80,44.99,0000 0000 0000 0000 000000
2017-02-06 00:59:20,0.13,7.13,0.00,19.93,23.07,26.87,15.08,51.03,1041.45,2040.53,1611.81,1773.67,1976.10,599.92,616.98,45.04,0000 0000 0000 0000 000000
2017-02-06 01:04:22,0.10,7.13,0.00,19.95,23.07,26.86,15.12,50.99,1041.30,2040.47,1610.76,1772.95,1975.26,600.41,617.22,45.09,0000 0000 0000 0000 000000
2017-02-06 01:09:23,0.19,7.14,0.00,19.98,23.07,26.89,15.01,51.00,1041.34,2040.61,1609.69,1772.09,1974.36,599.86,616.65,45.14,0000 0000 0000 0000 000000
2017-02-06 01:14:25,0.11,7.15,0.00,20.01,23.07,26.90,15.05,50.98,1041.34,2040.60,1608.62,1771.42,1973.56,600.00,616.74,45.20,0000 0000 0000 0000 000000
2017-02-06 01:19:26,0.17,7.15,0.00,19.97,23.07,26.89,15.06,51.10,1041.23,2040.62,1607.50,1770.62,1972.65,600.09,616.85,45.25,0000 0000 0000 0000 000000
2017-02-06 01:24:27,0.11,7.16,0.00,19.91,23.07,26.88,15.08,51.16,1041.14,2040.69,1606.41,1769.97,1971.80,600.12,617.02,45.30,0000 0000 0000 0000 000000
2017-02-06 01:29:29,0.14,7.17,0.00,19.97,23.07,26.88,15.03,50.94,1041.14,2040.81,1605.38,1769.11,1970.97,599.94,616.67,45.35,0000 0000 0000 0000 000000
2017-02-06 01:34:30,0.14,7.18,0.00,19.98,23.06,26.89,15.08,50.98,1041.30,2040.82,1604.34,1768.39,1970.05,599.85,616.66,45.40,0000 0000 0000 0000 000000
2017-02-06 01:39:31,0.11,7.18,0.00,20.00,23.06,26.89,14.98,51.01,1041.33,2040.80,1603.23,1767.69,1969.13,599.90,616.63,45.45,0000 0000 0000 0000 000000
2017-02-06 01:44:33,0.15,7.19,0.00,19.98,23.06,26.89,15.06,50.92,1041.19,2040.86,1602.14,1766.98,1968.27,599.79,616.32,45.50,0000 0000 0000 0000 000000
2017-02-06 01:49:34,0.14,7.20,0.00,19.91,23.06,26.89,15.12,51.02,1041.18,2040.93,1601.08,1766.14,1967.51,600.23,617.10,45.55,0000 0000 0000 0000 000000
2017-02-06 01:54:36,0.14,7.20,0.00,19.96,23.07,26.90,15.06,50.95,1041.17,2040.91,1599.97,1765.39,1966.57,599.87,616.76,45.60,0000 0000 0000 0000 000000
2017-02-06 01:59:37,0.11,7.21,0.00,20.00,23.07,26.88,15.05,51.05,1041.11,2040.87,1599.01,1764.72,1965.74,600.28,617.02,45.65,0000 0000 0000 0000 000000
2017-02-06 02:04:38,0.12,7.22,0.00,20.04,23.07,26.89,15.07,51.04,1041.04,2040.92,1598.02,1763.97,1964.87,599.97,616.50,45.70,0000 0000 0000 0000 000000
2017-02-06 02:09:39,0.14,7.23,0.00,20.02,23.07,26.91,15.05,51.15,1041.04,2040.92,1596.94,1763.16,1964.02,599.95,616.48,45.75,0000 0000 0000 0000 000000
2017-02-06 02:14:40,0.13,7.23,0.00,19.95,23.07,26.90,15.11,51.23,1041.03,2040.94,1595.96,1762.53,1963.17,600.00,616.67,45.80,0000 0000 0000 0000 000000
2017-02-06 02:19:41,0.11,7.24,0.00,19.98,23.07,26.91,15.01,51.24,1041.05,2040.94,1594.88,1761.88,1962.34,600.14,616.78,45.85,0000 0000 0000 0000 000000
2017-02-06 02:24:43,0.12,7.24,0.00,20.04,23.07,26.92,15.03,51.29,1041.05,2040.80,1593.76,1761.05,1961.53,600.03,616.60,45.90,0000 0000 0000 0000 000000
2017-02-06 02:29:44,0.15,7.25,0.00,20.06,23.07,26.89,15.04,51.29,1041.04,2040.69,1592.64,1760.22,1960.60,600.07,616.49,45.95,0000 0000 0000 0000 000000
2017-02-06 02:34:45,0.15,7.26,0.00,20.00,23.07,26.92,15.04,51.35,1041.05,2040.88,1591.54,1759.63,1959.79,599.94,616.50,46.00,0000 0000 0000 0000 000000
2017-02-06 02:39:47,0.17,7.27,0.00,20.03,23.08,26.93,15.01,51.46,1041.04,2040.94,1590.21,1758.64,1958.71,599.74,616.39,46.05,0000 0000 0000 0000 000000
2017-02-06 02:44:48,0.13,7.28,0.00,20.07,23.09,26.93,15.08,51.38,1041.03,2040.94,1588.97,1757.80,1957.75,600.31,616.76,46.11,0000 0000 0000 0000 000000
2017-02-06 02:49:49,0.13,7.28,0.00,20.11,23.09,26.94,15.09,51.35,1041.05,2040.93,1587.84,1757.01,1956.79,600.21,616.55,46.16,0000 0000 0000 0000 000000
2017-02-06 02:54:50,0.14,7.29,0.00,20.07,23.09,26.94,15.06,51.28,1041.07,2040.97,1586.80,1756.18,1955.97,599.94,616.40,46.21,0000 0000 0000 0000 000000
2017-02-06 02:59:52,0.13,7.30,0.00,20.04,23.09,26.95,15.02,51.38,1041.08,2040.87,1585.76,1755.42,1955.08,599.85,616.42,46.26,0000 0000 0000 0000 000000
2017-02-06 03:04:53,0.11,7.30,0.00,20.10,23.10,26.96,15.05,51.40,1041.04,2040.95,1584.81,1754.84,1954.19,599.86,616.33,46.31,0000 0000 0000 0000 000000
2017-02-06 03:09:54,0.14,7.31,0.00,20.13,23.10,26.97,14.99,51.33,1041.06,2040.94,1583.78,1754.04,1953.35,599.87,616.21,46.36,0000 0000 0000 0000 000000
2017-02-06 03:14:56,0.15,7.32,0.00,20.09,23.11,26.97,15.04,51.34,1041.06,2040.89,1582.60,1753.23,1952.44,599.81,616.17,46.41,0000 0000 0000 0000 000000
2017-02-06 03:19:57,0.14,7.32,0.00,20.06,23.12,27.00,15.00,51.42,1041.05,2040.93,1581.57,1752.55,1951.62,599.87,616.29,46.46,0000 0000 0000 0000 000000
2017-02-06 03:24:58,0.10,7.33,0.00,20.11,23.12,26.98,15.04,51.39,1041.07,2040.72,1580.49,1751.75,1950.60,599.86,616.25,46.51,0000 0000 0000 0000 000000
2017-02-06 03:30:00,0.12,7.34,0.00,20.16,23.12,27.00,15.10,51.33,1041.08,2040.63,1579.38,1750.95,1949.72,600.15,616.42,46.56,0000 0000 0000 0000 000000
2017-02-06 03:35:01,0.13,7.34,0.00,20.18,23.12,26.99,15.11,51.41,1041.09,2040.54,1578.34,1750.10,1948.79,599.82,615.99,46.61,0000 0000 0000 0000 000000
2017-02-06 03:40:02,0.12,7.35,0.00,20.12,23.13,27.02,15.10,51.33,1041.06,2040.45,1577.32,1749.38,1947.95,599.91,616.28,46.66,0000 0000 0000 0000 000000
2017-02-06 03:45:03,0.11,7.36,0.00,20.10,23.14,27.03,15.03,51.34,1041.07,2040.36,1576.28,1748.69,1947.05,600.08,616.49,46.71,0000 0000 0000 0000 000000
2017-02-06 03:50:05,0.10,7.36,0.00,20.15,23.14,27.05,15.09,51.26,1041.12,2040.15,1575.27,1747.97,1946.12,600.30,616.71,46.76,0000 0000 0000 0000 000000
2017-02-06 03:55:06,0.14,7.37,0.00,20.20,23.15,27.05,15.06,51.17,1041.07,2040.13,1574.30,1747.14,1945.25,599.95,616.11,46.81,0000 0000 0000 0000 000000
2017-02-06 04:00:07,0.14,7.38,0.00,20.15,23.15,27.03,15.07,51.21,1041.06,2040.05,1573.19,1746.34,1944.32,600.02,616.27,46.86,0000 0000 0000 0000 000000
2017-02-06 04:05:09,0.12,7.38,0.00,20.15,23.17,27.04,15.01,51.27,1041.05,2040.04,1572.10,1745.70,1943.54,599.88,616.17,46.91,0000 0000 0000 0000 000000
2017-02-06 04:10:10,0.11,7.39,0.00,20.20,23.17,27.05,15.08,51.28,1041.05,2040.04,1571.07,1744.97,1942.66,600.14,616.28,46.97,0000 0000 0000 0000 000000
2017-02-06 04:15:11,0.13,7.40,0.00,20.23,23.17,27.08,15.11,51.26,1041.04,2040.04,1570.03,1744.10,1941.82,600.11,616.23,47.02,0000 0000 0000 0000 000000
2017-02-06 04:20:13,0.14,7.40,0.00,20.25,23.19,27.11,15.04,51.29,1041.03,2040.02,1569.05,1743.45,1940.97,600.05,616.04,47.07,0000 0000 0000 0000 000000
2017-02-06 04:25:14,0.12,7.41,0.00,20.18,23.20,27.11,15.08,51.33,1041.03,2040.02,1568.09,1742.79,1940.09,600.25,616.52,47.12,0000 0000 0000 0000 000000
2017-02-06 04:30:15,0.13,7.42,0.00,20.19,23.22,27.15,15.09,51.38,1041.03,2040.01,1567.00,1741.98,1939.15,600.12,616.33,47.17,0000 0000 0000 0000 000000
2017-02-06 04:35:17,0.15,7.42,0.00,20.24,23.24,27.15,14.98,51.24,1041.03,2040.00,1565.92,1741.12,1938.18,600.10,616.17,47.22,0000 0000 0000 0000 000000
2017-02-06 04:40:18,0.14,7.43,0.00,20.26,23.25,27.16,14.96,51.28,1041.03,2040.00,1564.95,1740.42,1937.32,599.62,615.65,47.27,0000 0000 0000 0000 000000
2017-02-06 04:45:19,0.13,7.44,0.00,20.25,23.27,27.19,14.98,51.17,1041.03,2039.99,1563.94,1739.74,1936.49,600.03,616.08,47.32,0000 0000 0000 0000 000000
2017-02-06 04:50:21,0.11,7.44,0.00,20.21,23.28,27.21,15.01,51.18,1041.03,2039.98,1562.93,1738.99,1935.68,600.02,616.13,47.37,0000 0000 0000 0000 000000
2017-02-06 04:55:22,0.13,7.45,0.00,20.25,23.29,27.21,15.11,51.24,1041.03,2039.98,1561.93,1738.18,1934.83,600.37,616.47,47.42,0000 0000 0000 0000 000000
2017-02-06 05:00:23,0.13,7.46,0.00,20.28,23.31,27.22,15.03,51.23,1041.03,2039.98,1560.96,1737.56,1934.01,599.96,615.99,47.47,0000 0000 0000 0000 000000
2017-02-06 05:05:25,0.10,7.46,0.00,20.17,23.32,27.18,15.04,51.34,1041.03,2039.97,1559.95,1736.97,1933.18,600.02,616.25,47.52,0000 0000 0000 0000 000000
2017-02-06 05:10:26,0.15,7.47,0.00,20.14,23.32,27.19,15.04,51.33,1041.03,2039.98,1558.96,1736.14,1932.39,600.01,616.34,47.57,0000 0000 0000 0000 000000
2017-02-06 05:15:28,0.12,7.48,0.00,20.18,23.33,27.20,15.04,51.43,1041.03,2039.97,1557.97,1735.60,1931.66,599.88,616.09,47.62,0000 0000 0000 0000 000000
2017-02-06 05:20:29,0.09,7.48,0.00,20.24,23.34,27.28,14.96,51.39,1041.03,2039.97,1557.01,1734.94,1930.87,599.76,615.75,47.67,0000 0000 0000 0000 000000
2017-02-06 05:25:30,0.14,7.49,0.00,20.16,23.34,27.30,15.11,51.34,1041.03,2039.98,1556.08,1734.11,1930.05,600.16,616.50,47.72,0000 0000 0000 0000 000000
2017-02-06 05:30:32,0.13,7.49,0.00,20.08,23.33,27.29,14.98,51.48,1041.03,2039.98,1555.17,1733.62,1929.24,599.36,615.92,47.77,0000 0000 0000 0000 000000
2017-02-06 05:35:33,0.10,7.50,0.00,20.02,23.31,27.30,14.99,51.51,1041.03,2039.99,1554.25,1733.02,1928.65,599.69,616.22,47.82,0000 0000 0000 0000 000000
2017-02-06 05:40:35,0.12,7.51,0.00,19.93,23.28,27.27,15.11,51.46,1041.03,2039.99,1553.35,1732.36,1927.99,600.08,616.81,47.88,0000 0000 0000 0000 000000
2017-02-06 05:45:36,0.09,7.51,0.00,19.84,23.24,27.17,15.02,51.52,1041.03,2039.99,1552.51,1731.98,1927.18,599.71,616.53,47.93,0000 0000 0000 0000 000000
2017-02-06 05:50:37,0.13,7.52,0.00,19.76,23.20,27.07,15.06,51.53,1041.03,2040.03,1551.67,1731.27,1926.67,599.91,616.96,47.98,0000 0000 0000 0000 000000
2017-02-06 05:55:38,0.10,7.52,0.00,19.71,23.14,26.94,15.11,51.60,1041.03,2040.31,1550.85,1730.98,1926.01,600.16,617.40,48.03,0000 0000 0000 0000 000000
2017-02-06 06:00:40,0.20,7.53,0.00,19.66,23.08,26.79,15.07,51.48,1041.03,2040.85,1550.01,1730.22,1925.29,599.90,617.24,48.08,0000 0000 0000 0000 000000
2017-02-06 06:05:41,0.07,7.54,0.00,19.59,23.02,26.68,15.13,51.58,1041.03,2040.98,1549.15,1729.99,1924.94,599.80,617.15,48.13,0000 0000 0000 0000 000000
2017-02-06 06:10:43,0.13,7.54,0.00,19.55,22.95,26.60,15.12,51.63,1041.03,2041.00,1548.43,1729.33,1924.13,600.18,617.67,48.18,0000 0000 0000 0000 000000
2017-02-06 06:15:44,0.06,7.55,0.00,19.45,22.87,26.41,15.02,51.54,1041.03,2041.06,1547.77,1729.01,1923.82,599.76,617.59,48.23,0000 0000 0000 0000 000000
2017-02-06 06:20:45,0.17,7.55,0.00,19.30,22.79,26.32,15.08,51.53,1041.03,2041.49,1546.99,1728.62,1923.05,599.91,617.95,48.28,0000 0000 0000 0000 000000
2017-02-06 06:25:46,0.13,7.56,0.00,19.35,22.72,26.28,15.06,51.48,1041.03,2041.96,1546.13,1728.02,1922.64,599.98,617.91,48.33,0000 0000 0000 0000 000000
2017-02-06 06:30:48,0.07,7.57,0.00,19.37,22.64,26.08,15.10,51.53,1041.02,2041.99,1545.37,1727.87,1922.00,600.30,618.25,48.38,0000 0000 0000 0000 000000
2017-02-06 06:35:49,0.12,7.57,0.00,19.40,22.57,25.94,15.02,51.47,1040.96,2042.01,1544.65,1727.11,1921.42,599.99,617.76,48.43,0000 0000 0000 0000 000000
2017-02-06 06:40:51,0.06,7.58,0.00,19.42,22.52,25.94,15.06,51.44,1040.95,2042.14,1543.87,1726.97,1920.96,600.04,617.76,48.48,0000 0000 0000 0000 000000
2017-02-06 06:45:52,0.23,7.59,0.00,19.44,22.47,25.89,15.04,51.39,1040.88,2042.74,1543.03,1726.26,1920.15,600.00,617.57,48.53,0000 0000 0000 0000 000000
2017-02-06 06:50:53,0.08,7.60,0.00,19.44,22.43,25.93,15.09,51.33,1040.81,2042.97,1542.17,1725.99,1919.82,600.03,617.64,48.58,0000 0000 0000 0000 000000
2017-02-06 06:55:54,0.14,7.60,0.00,19.44,22.39,26.00,15.10,51.30,1040.86,2042.98,1541.33,1725.27,1919.06,600.25,617.90,48.63,0000 0000 0000 0000 000000
2017-02-06 07:00:56,0.09,7.61,0.00,19.46,22.37,26.04,15.08,51.27,1040.98,2042.99,1540.52,1724.92,1918.44,600.11,617.80,48.68,0000 0000 0000 0000 000000
2017-02-06 07:05:57,0.11,7.61,0.00,19.49,22.34,26.08,15.09,51.28,1041.02,2042.99,1539.69,1724.13,1917.87,600.03,617.60,48.73,0000 0000 0000 0000 000000
2017-02-06 07:10:58,0.07,7.62,0.00,19.51,22.33,26.12,15.07,51.33,1041.03,2043.01,1538.88,1723.86,1917.08,600.17,617.74,48.79,0000 0000 0000 0000 000000
2017-02-06 07:16:00,0.13,7.62,0.00,19.52,22.32,26.17,15.07,51.27,1041.03,2043.01,1537.98,1723.07,1916.35,600.02,617.59,48.84,0000 0000 0000 0000 000000
2017-02-06 07:21:01,0.14,7.63,0.00,19.52,22.32,26.20,14.97,51.26,1041.03,2043.02,1537.04,1722.44,1915.64,599.68,617.23,48.89,0000 0000 0000 0000 000000
2017-02-06 07:26:02,0.09,7.64,0.00,19.55,22.32,26.25,15.13,51.34,1041.03,2043.06,1536.13,1721.93,1914.95,600.35,617.98,48.94,0000 0000 0000 0000 000000
2017-02-06 07:31:03,0.14,7.64,0.00,19.56,22.32,26.31,15.03,51.23,1041.03,2043.03,1535.24,1721.11,1914.09,599.92,617.39,48.99,0000 0000 0000 0000 000000
2017-02-06 07:36:05,0.12,7.65,0.00,19.57,22.32,26.34,15.08,51.38,1041.03,2043.03,1534.50,1720.59,1913.28,600.01,617.49,49.04,0000 0000 0000 0000 000000
2017-02-06 07:41:06,0.10,7.65,0.00,19.58,22.34,26.37,15.04,51.36,1041.04,2043.04,1533.58,1719.99,1912.59,599.84,617.37,49.09,0000 0000 0000 0000 000000
2017-02-06 07:46:08,0.12,7.66,0.00,19.59,22.34,26.38,15.04,51.37,1041.05,2043.04,1532.67,1719.25,1911.90,599.76,617.10,49.14,0000 0000 0000 0000 000000
2017-02-06 07:51:09,0.13,7.67,0.00,19.59,22.36,26.43,15.10,51.33,1041.04,2043.03,1531.76,1718.65,1911.04,600.18,617.71,49.19,0000 0000 0000 0000 000000
2017-02-06 07:56:11,0.11,7.67,0.00,19.59,22.37,26.46,15.09,51.44,1041.04,2043.00,1530.79,1717.97,1910.16,600.04,617.61,49.24,0000 0000 0000 0000 000000
2017-02-06 08:01:12,0.14,7.68,0.00,19.59,22.39,26.48,15.09,51.30,1041.06,2043.00,1529.82,1717.16,1909.42,600.26,617.55,49.29,0000 0000 0000 0000 000000
2017-02-06 08:06:13,0.13,7.69,0.00,19.60,22.40,26.50,15.10,51.31,1041.07,2043.00,1528.86,1716.58,1908.63,600.11,617.65,49.34,0000 0000 0000 0000 000000
2017-02-06 08:11:14,0.08,7.69,0.00,19.60,22.42,26.51,15.04,51.29,1041.08,2043.00,1527.99,1715.98,1907.91,599.91,617.40,49.39,0000 0000 0000 0000 000000
2017-02-06 08:16:16,0.15,7.70,0.00,19.62,22.44,26.55,15.03,51.41,1041.08,2043.00,1526.99,1715.16,1907.07,599.61,617.09,49.44,0000 0000 0000 0000 000000
2017-02-06 08:21:17,0.13,7.71,0.00,19.60,22.45,26.56,15.11,51.40,1041.09,2043.00,1526.04,1714.64,1906.19,600.15,617.64,49.49,0000 0000 0000 0000 000000
2017-02-06 08:26:18,0.11,7.71,0.00,19.59,22.47,26.58,15.12,51.40,1041.13,2042.99,1525.10,1713.96,1905.42,599.84,617.34,49.54,0000 0000 0000 0000 000000
2017-02-06 08:31:20,0.14,7.72,0.00,19.59,22.48,26.59,15.07,51.30,1041.22,2042.98,1524.12,1713.15,1904.66,599.79,617.31,49.59,0000 0000 0000 0000 000000
2017-02-06 08:36:21,0.11,7.72,0.00,19.58,22.49,26.59,15.04,51.40,1041.43,2042.98,1523.17,1712.65,1903.96,599.62,617.23,49.64,0000 0000 0000 0000 000000
2017-02-06 08:41:22,0.12,7.73,0.00,19.58,22.52,26.59,15.08,51.40,1041.50,2042.97,1522.18,1711.99,1903.11,600.09,617.83,49.69,0000 0000 0000 0000 000000
2017-02-06 08:46:24,0.15,7.74,0.00,19.58,22.52,26.62,15.03,51.40,1041.52,2042.93,1521.20,1711.21,1902.22,599.85,617.76,49.75,0000 0000 0000 0000 000000
2017-02-06 08:51:25,0.11,7.74,0.00,19.59,22.54,26.62,15.04,51.39,1041.52,2042.79,1520.22,1710.65,1901.51,599.81,617.45,49.80,0000 0000 0000 0000 000000
2017-02-06 08:56:26,0.10,7.75,0.00,19.58,22.56,26.62,15.13,51.35,1041.52,2042.84,1519.37,1710.00,1900.77,600.07,617.89,49.85,0000 0000 0000 0000 000000
2017-02-06 09:01:28,0.10,7.76,0.00,19.56,22.57,26.63,15.04,51.34,1041.52,2042.54,1518.33,1709.20,1899.96,599.86,617.72,49.90,0000 0000 0000 0000 000000
2017-02-06 09:06:29,0.11,7.76,0.00,19.55,22.58,26.63,15.10,51.45,1041.52,2042.30,1517.40,1708.64,1899.11,599.94,617.87,49.95,0000 0000 0000 0000 000000
2017-02-06 09:11:30,0.09,7.77,0.00,19.55,22.59,26.63,15.07,51.50,1041.52,2042.12,1516.41,1707.99,1898.27,600.15,617.87,50.00,0000 0000 0000 0000 000000
2017-02-06 09:16:31,0.14,7.77,0.00,19.55,22.60,26.63,15.10,51.43,1041.52,2042.06,1515.44,1707.19,1897.52,599.96,617.82,50.05,0000 0000 0000 0000 000000
2017-02-06 09:21:32,0.11,7.78,0.00,19.53,22.62,26.60,15.09,51.49,1041.52,2042.03,1514.45,1706.63,1896.82,599.99,617.90,50.10,0000 0000 0000 0000 000000
2017-02-06 09:26:34,0.10,7.78,0.00,19.52,22.62,26.61,15.06,51.41,1041.52,2042.03,1513.53,1706.00,1896.02,600.07,617.89,50.15,0000 0000 0000 0000 000000
2017-02-06 09:31:35,0.15,7.79,0.00,19.51,22.64,26.61,15.09,51.39,1041.52,2042.02,1512.64,1705.23,1895.20,599.91,617.74,50.20,0000 0000 0000 0000 000000
2017-02-06 09:36:36,0.11,7.80,0.00,19.51,22.64,26.63,15.09,51.55,1041.52,2042.01,1511.72,1704.76,1894.43,599.76,617.84,50.25,0000 0000 0000 0000 000000
2017-02-06 09:41:37,0.11,7.80,0.00,19.50,22.64,26.63,15.09,51.47,1041.51,2042.00,1510.76,1704.03,1893.78,600.08,617.98,50.30,0000 0000 0000 0000 000000
2017-02-06 09:46:39,0.14,7.81,0.00,19.50,22.65,26.60,15.01,51.49,1041.51,2042.00,1509.78,1703.39,1892.98,599.63,617.56,50.35,0000 0000 0000 0000 000000
2017-02-06 09:51:40,0.11,7.82,0.00,19.48,22.66,26.62,14.99,51.53,1041.50,2042.00,1508.81,1702.85,1892.11,599.12,616.96,50.40,0000 0000 0000 0000 000000
2017-02-06 09:56:41,0.14,7.82,0.00,19.48,22.67,26.63,15.13,51.58,1041.49,2042.00,1507.86,1702.04,1891.38,600.23,618.28,50.45,0000 0000 0000 0000 000000
2017-02-06 10:01:42,0.13,7.83,0.00,19.46,22.67,26.62,15.14,51.38,1041.51,2042.00,1506.90,1701.39,1890.72,600.35,618.25,50.50,0000 0000 0000 0000 000000
2017-02-06 10:06:43,0.09,7.84,0.00,19.46,22.67,26.62,15.16,51.54,1041.52,2042.00,1505.91,1700.91,1889.93,600.32,618.37,50.55,0000 0000 0000 0000 000000
2017-02-06 10:11:45,0.15,7.84,0.00,19.47,22.67,26.60,15.10,51.50,1041.52,2042.00,1504.90,1700.08,1889.07,600.20,618.25,50.60,0000 0000 0000 0000 000000
2017-02-06 10:16:46,0.14,7.85,0.00,19.45,22.68,26.62,15.16,51.56,1041.52,2042.00,1503.98,1699.48,1888.34,600.24,618.39,50.65,0000 0000 0000 0000 000000
2017-02-06 10:21:47,0.10,7.86,0.00,19.44,22.69,26.60,15.13,51.60,1041.52,2042.00,1502.99,1698.97,1887.69,600.23,618.10,50.71,0000 0000 0000 0000 000000
2017-02-06 10:26:48,0.13,7.86,0.00,19.44,22.69,26.57,14.99,51.48,1041.52,2042.00,1502.01,1698.19,1886.95,599.69,617.70,50.76,0000 0000 0000 0000 000000
2017-02-06 10:31:49,0.12,7.87,0.00,19.43,22.69,26.59,15.09,51.54,1041.52,2042.00,1501.04,1697.72,1886.11,600.00,618.07,50.81,0000 0000 0000 0000 000000
2017-02-06 10:36:51,0.12,7.88,0.00,19.42,22.69,26.58,15.15,51.63,1041.52,2041.99,1500.05,1697.01,1885.28,599.98,618.13,50.86,0000 0000 0000 0000 000000
2017-02-06 10:41:52,0.14,7.88,0.00,19.40,22.69,26.55,15.16,51.59,1041.51,2041.99,1499.09,1696.27,1884.63,600.12,618.22,50.91,0000 0000 0000 0000 000000
2017-02-06 10:46:53,0.08,7.89,0.00,19.39,22.69,26.52,15.07,51.70,1041.51,2041.99,1498.14,1695.88,1883.95,599.84,618.01,50.96,0000 0000 0000 0000 000000
2017-02-06 10:51:55,0.15,7.90,0.00,19.39,22.69,26.55,15.18,51.81,1041.51,2041.99,1497.20,1695.07,1883.10,600.37,618.47,51.01,0000 0000 0000 0000 000000
2017-02-06 10:56:56,0.15,7.90,0.00,19.39,22.69,26.54,15.06,51.79,1041.50,2041.99,1496.30,1694.43,1882.35,600.20,618.37,51.06,0000 0000 0000 0000 000000
2017-02-06 11:01:58,0.10,7.91,0.00,19.36,22.69,26.51,15.11,51.61,1041.50,2041.99,1495.44,1693.87,1881.67,599.92,618.22,51.11,0000 0000 0000 0000 000000
2017-02-06 11:06:59,0.13,7.92,0.00,19.37,22.69,26.52,15.09,51.66,1041.52,2041.99,1494.47,1693.07,1880.92,599.66,618.04,51.16,0000 0000 0000 0000 000000
2017-02-06 11:12:00,0.14,7.92,0.00,19.38,22.69,26.53,15.05,51.71,1041.49,2041.99,1493.53,1692.47,1880.07,599.89,618.07,51.21,0000 0000 0000 0000 000000
2017-02-06 11:17:01,0.10,7.93,0.00,19.36,22.69,26.50,15.10,51.62,1041.48,2041.99,1492.61,1691.97,1879.26,600.03,618.23,51.26,0000 0000 0000 0000 000000
2017-02-06 11:22:02,0.14,7.93,0.00,19.34,22.69,26.51,15.07,51.63,1041.42,2041.99,1491.67,1691.17,1878.65,599.90,618.11,51.31,0000 0000 0000 0000 000000
2017-02-06 11:27:04,0.12,7.94,0.00,19.34,22.69,26.50,15.14,51.64,1041.39,2041.98,1490.67,1690.65,1877.94,600.12,618.27,51.36,0000 0000 0000 0000 000000
2017-02-06 11:32:05,0.11,7.95,0.00,19.34,22.68,26.49,15.10,51.85,1041.28,2041.99,1489.75,1690.01,1877.09,600.08,618.24,51.41,0000 0000 0000 0000 000000
2017-02-06 11:37:06,0.14,7.95,0.00,19.35,22.67,26.48,15.20,51.99,1041.23,2041.99,1488.81,1689.42,1876.49,600.03,618.09,51.46,0000 0000 0000 0000 000000
2017-02-06 11:42:07,0.09,7.96,0.00,19.32,22.67,26.45,15.16,51.98,1041.42,2041.99,1487.87,1688.88,1875.75,600.40,618.81,51.52,0000 0000 0000 0000 000000
2017-02-06 11:47:08,0.13,7.97,0.00,19.30,22.67,26.45,15.11,52.03,1041.50,2041.99,1486.89,1688.07,1875.00,599.73,618.23,51.57,0000 0000 0000 0000 000000
2017-02-06 11:52:10,0.14,7.97,0.00,19.32,22.67,26.44,15.15,51.94,1041.50,2041.99,1485.97,1687.54,1874.16,600.70,619.07,51.62,0000 0000 0000 0000 000000
2017-02-06 11:57:11,0.11,7.98,0.00,19.33,22.67,26.45,15.03,51.92,1041.49,2041.99,1485.04,1686.98,1873.46,599.87,618.20,51.67,0000 0000 0000 0000 000000
2017-02-06 12:02:12,0.14,7.99,0.00,19.32,22.67,26.46,15.13,51.90,1041.46,2042.00,1484.11,1686.19,1872.81,600.40,618.64,51.72,0000 0000 0000 0000 000000
2017-02-06 12:07:13,0.12,7.99,0.00,19.31,22.67,26.45,15.06,51.88,1041.44,2042.00,1483.17,1685.71,1872.03,599.63,617.97,51.77,0000 0000 0000 0000 000000
2017-02-06 12:12:15,0.13,8.00,0.00,19.31,22.67,26.41,15.12,51.93,1041.45,2042.00,1482.21,1685.02,1871.24,600.04,618.39,51.82,0000 0000 0000 0000 000000
2017-02-06 12:17:16,0.14,8.01,0.00,19.30,22.65,26.44,15.08,51.96,1041.50,2042.00,1481.31,1684.35,1870.54,600.09,618.41,51.87,0000 0000 0000 0000 000000
2017-02-06 12:22:17,0.08,8.01,0.00,19.30,22.65,26.43,15.12,52.04,1041.49,2042.00,1480.41,1683.88,1869.86,599.61,618.08,51.92,0000 0000 0000 0000 000000
2017-02-06 12:27:19,0.15,8.02,0.00,19.29,22.65,26.43,15.13,51.92,1041.49,2042.01,1479.52,1683.08,1869.04,600.29,618.53,51.97,0000 0000 0000 0000 000000
2017-02-06 12:32:20,0.15,8.02,0.00,19.30,22.64,26.44,15.08,52.02,1041.47,2042.03,1478.57,1682.56,1868.29,600.20,618.56,52.02,0000 0000 0000 0000 000000
2017-02-06 12:37:21,0.08,8.03,0.00,19.31,22.65,26.42,15.15,51.97,1041.33,2042.04,1477.73,1681.98,1867.72,600.05,618.27,52.07,0000 0000 0000 0000 000000
2017-02-06 12:42:23,0.16,8.04,0.00,19.29,22.64,26.45,15.10,52.22,1041.31,2042.03,1476.67,1681.18,1866.93,599.81,618.08,52.12,0000 0000 0000 0000 000000
2017-02-06 12:47:24,0.13,8.04,0.00,19.29,22.64,26.46,15.14,52.68,1041.33,2042.03,1475.67,1680.64,1866.08,600.01,618.28,52.17,0000 0000 0000 0000 000000
2017-02-06 12:52:26,0.12,8.05,0.00,19.30,22.64,26.43,15.14,52.49,1041.34,2042.05,1474.70,1680.00,1865.36,599.88,618.14,52.22,0000 0000 0000 0000 000000
2017-02-06 12:57:27,0.13,8.06,0.00,19.30,22.64,26.45,15.10,52.38,1041.36,2042.06,1473.76,1679.27,1864.66,599.98,618.32,52.27,0000 0000 0000 0000 000000